Regional Weather Roundup
Issued by NWS

Home | Current Version | Previous Version | Text Only | Print | Product List | Glossary On
Versions: 1 2 3 4 5 6 7 8 9 10 11 12 13 14 15 16 17 18 19 20 21 22 23 24 25 26 27 28 29 30 31 32 33 34 35 36 37 38 39 40 41 42 43 44 45 46 47 48 49 50
000
ASCA44 KEWX 190720
RWRMX

LATIN AMERICA AND CARIBBEAN REGIONAL WEATHER ROUNDUP
NATIONAL WEATHER SERVICE AUSTIN/SAN ANTONIO TX
100 AM CST MON FEB 19 2018

NOTE: "FAIR" INDICATED FEW OR NO CLOUDS BELOW 12,000 FEET WITH NO
SIGNIFICANT WEATHER AND/OR OBSTRUCTIONS TO VISIBILITY.

BAJA CALIFORNIA

CITY           SKY/WX    TMP DP  RH WIND       PRES   REMARKS
MEXICALI       CLEAR     57  39  51 W3        29.76F
S.J. DEL CABO    N/A    N/A N/A N/A MISG        N/A
TIJUANA        MOCLDY    57  46  67 SE5       29.95F

NORTHWESTERN MEXICO

CITY           SKY/WX    TMP DP  RH WIND       PRES   REMARKS
HERMOSILLO     PTCLDY    68  59  73 CALM      29.93S

NORTHEASTERN MEXICO

CITY           SKY/WX    TMP DP  RH WIND       PRES   REMARKS
MONCLOVA         N/A    N/A N/A N/A MISG        N/A
MONTERREY      CLEAR     68  63  83 E9        29.87F
REYNOSA          N/A    N/A N/A N/A MISG        N/A
CD. VICTORIA     N/A    N/A N/A N/A MISG        N/A

WESTERN MEXICO

CITY           SKY/WX    TMP DP  RH WIND       PRES   REMARKS
AGUASCALIENTES   N/A    N/A N/A N/A MISG        N/A
COLIMA           N/A    N/A N/A N/A MISG        N/A
GUADALAJARA    MOCLDY    64  48  55 W7        30.15F
MAZATLAN       PTCLDY    64  63  94 CALM      29.94F
P. VALLARTA    PTCLDY    72  72 100 CALM      29.96S
URUAPAN          N/A    N/A N/A N/A MISG        N/A
ZACATECAS      CLEAR     55  43  62 CALM      30.21

CENTRAL MEXICO

CITY           SKY/WX    TMP DP  RH WIND       PRES   REMARKS
CUERNAVACA       N/A    N/A N/A N/A MISG        N/A
MEXICO CITY    MOCLDY    59  36  41 E9        30.28S
MORELIA        MOCLDY    59  48  67 W6        30.19F
POZA RICA        N/A    N/A N/A N/A MISG        N/A
S. LUIS POTOSI PTCLDY    54  45  71 S7        30.19F
TOLUCA         MOCLDY    50  41  71 CALM      30.34S

SOUTHERN MEXICO

CITY           SKY/WX    TMP DP  RH WIND       PRES   REMARKS
ACAPULCO       CLEAR     75  70  83 E3        29.92S
B. DE HUATULCO   N/A    N/A N/A N/A MISG        N/A
P. ESCONDIDO     N/A    N/A N/A N/A MISG        N/A
VERACRUZ         N/A    N/A N/A N/A MISG        N/A

YUCATAN PENINSULA

CITY           SKY/WX    TMP DP  RH WIND       PRES   REMARKS
CAMPECHE       CLEAR     73  66  78 E12       30.01S
CANCUN         CLEAR     77  70  78 E10       30.09S
CHETUMAL         N/A    N/A N/A N/A MISG        N/A
CD. DEL CARMEN   N/A    N/A N/A N/A MISG        N/A
COZUMEL        PTCLDY    70  68  94 CALM      30.06F
MERIDA         CLEAR     72  63  73 E6        30.06F
MINATITLAN       N/A    N/A N/A N/A MISG        N/A
TAPACHULA      CLEAR     70  70 100 CALM      29.90F

CENTRAL AMERICA

CITY           SKY/WX    TMP DP  RH WIND       PRES   REMARKS
MANAGUA        MOSUNNY   75  68  78 E9        29.89S

CARIBBEAN

CITY           SKY/WX    TMP DP  RH WIND       PRES   REMARKS
KINGSTON       PTCLDY    77  70  78 N6        30.00S
NASSAU         MOCLDY    75  66  73 NE8       30.22F
SAN JUAN       PTCLDY    75  70  83 E17G28    30.11F
SANTO DOMINGO  PTCLDY    70  68  94 N6        30.09S
ST. CROIX      CLEAR     75  66  73 NE17      30.09F
ST. MAARTEN    PTCLDY   N/A N/A N/A NE16      30.09
ST. THOMAS     CLEAR     73  66  78 E15G24    30.09F

$$




USA.gov is the U.S. government's official web portal to all federal, state and local government web resources and services.